Myrtle Beach, SC

9:44 PM EST on December 03, 2016 (GMT -0500)
Myrtle Beach International

Weather History for KMYR - March, 2014

Change the Weather History Date:

Tuesday, March 25, 2014

  Actual Average Record
Temperature  
Mean Temperature 48 °F -  
Max Temperature 55 °F 64 °F 84 °F (2007)
Min Temperature 41 °F 45 °F 28 °F (1956)
Degree Days  
Heating Degree Days 16    
Moisture  
Dew Point 39 °F    
Average Humidity 74    
Maximum Humidity 93    
Minimum Humidity 50    
Precipitation  
Precipitation 0.11 in - - ()
Sea Level Pressure  
Sea Level Pressure 29.92 in    
Wind  
Wind Speed 10 mph (NNE)    
Max Wind Speed 16 mph    
Max Gust Speed 23 mph    
Visibility 9 miles    
Events Rain    
Averages and records for this station are not official NWS values.
T = Trace of Precipitation, MM = Missing Value Source: NWS Daily Summary

Daily Weather History Graph

Daily Weather History Graph

Search for Another Location

Airport or City:

Trip Planner

Search our weather history database for the weather conditions in past years. The results will help you decide how hot, cold, wet, or windy it might be!

Date:

Astronomy

Mar. 25, 2014 Rise Set
Actual Time 7:12 AM EDT 7:31 PM EDT
Civil Twilight 6:47 AM EDT 7:56 PM EDT
Nautical Twilight 6:18 AM EDT 8:25 PM EDT
Astronomical Twilight 5:49 AM EDT 8:54 PM EDT
Moon 3:18 AM EDT (3/25) 2:13 PM EDT (3/25)
Length of Visible Light 13h 08m
Length of Day
12h 18m
Waning Crescent, 32% of the Moon is Illuminated
Mar 25
Waning Crescent
Mar 30
New
Apr 7
First Quarter
Apr 15
Full
Apr 22
Last Quarter

Hourly Weather History & Observations

Time (EDT) Temp. Windchill Dew Point Humidity Pressure Visibility Wind Dir Wind Speed Gust Speed Precip Events Conditions
12:15 AM 48.2 °F - 30.2 °F 50% 30.09 in 10.0 mi East 8.1 mph - N/A   Clear
12:35 AM 48.2 °F - 32.0 °F 54% 30.07 in 10.0 mi East 12.7 mph - N/A   Clear
12:55 AM 48.2 °F - 32.0 °F 54% 30.07 in 10.0 mi East 10.4 mph 16.1 mph N/A   Scattered Clouds
1:15 AM 48.2 °F - 32.0 °F 54% 30.06 in 10.0 mi East 12.7 mph 17.3 mph N/A   Mostly Cloudy
1:35 AM 48.2 °F - 32.0 °F 54% 30.04 in 10.0 mi East 9.2 mph - N/A   Mostly Cloudy
1:55 AM 48.2 °F - 33.8 °F 58% 30.03 in 10.0 mi ENE 9.2 mph 17.3 mph N/A   Scattered Clouds
2:15 AM 48.2 °F - 33.8 °F 58% 30.02 in 10.0 mi ENE 11.5 mph - N/A   Mostly Cloudy
2:35 AM 48.2 °F - 33.8 °F 58% 30.01 in 10.0 mi ENE 11.5 mph 18.4 mph N/A   Overcast
2:55 AM 48.2 °F - 35.6 °F 62% 30.00 in 10.0 mi ENE 9.2 mph - N/A   Overcast
3:15 AM 48.2 °F - 35.6 °F 62% 29.99 in 10.0 mi NNE 8.1 mph - N/A   Overcast
3:35 AM 46.4 °F - 35.6 °F 66% 30.00 in 10.0 mi Calm Calm - N/A   Overcast
3:55 AM 46.4 °F 43.5 °F 35.6 °F 66% 29.99 in 10.0 mi North 5.8 mph - N/A   Overcast
4:15 AM 44.6 °F 41.4 °F 37.4 °F 76% 29.97 in 10.0 mi NE 5.8 mph - 0.01 in   Overcast
4:35 AM 44.6 °F 40.7 °F 37.4 °F 76% 29.96 in 10.0 mi NE 6.9 mph - 0.02 in   Overcast
4:55 AM 44.6 °F 41.4 °F 39.2 °F 81% 29.96 in 10.0 mi ENE 5.8 mph - 0.02 in   Mostly Cloudy
5:15 AM 44.6 °F 39.7 °F 39.2 °F 81% 29.96 in 10.0 mi North 9.2 mph - 0.05 in   Scattered Clouds
5:35 AM 44.6 °F 41.4 °F 41.0 °F 87% 29.95 in 10.0 mi North 5.8 mph - 0.09 in   Clear
5:50 AM 44.6 °F - 42.8 °F 93% 29.95 in 10.0 mi Calm Calm - N/A   Mostly Cloudy
6:50 AM 44.6 °F 40.7 °F 42.8 °F 93% 29.94 in 10.0 mi North 6.9 mph - N/A   Mostly Cloudy
7:45 AM 44.6 °F 39.7 °F 42.8 °F 93% 29.93 in 5.0 mi North 9.2 mph - N/A   Overcast
8:47 AM 46.4 °F 43.5 °F 44.6 °F 93% 29.92 in 5.0 mi NNE 5.8 mph - N/A Rain Light Rain
9:47 AM 48.2 °F - 46.4 °F 93% 29.89 in 5.0 mi ESE 15.0 mph - N/A Rain Light Rain
10:45 AM 51.8 °F - 48.2 °F 88% 29.87 in 10.0 mi SE 15.0 mph 23.0 mph N/A   Mostly Cloudy
11:50 AM 55.4 °F - 48.2 °F 77% 29.83 in 10.0 mi ESE 16.1 mph - N/A   Mostly Cloudy
12:45 PM 53.6 °F - 44.6 °F 72% 29.82 in 10.0 mi East 11.5 mph - N/A   Mostly Cloudy
1:50 PM 51.8 °F - 44.6 °F 76% 29.77 in 10.0 mi Calm Calm - N/A   Mostly Cloudy
2:30 PM 51.8 °F - 46.4 °F 82% 29.76 in 6.0 mi WNW 9.2 mph - N/A   Overcast
2:50 PM 50.0 °F - 46.4 °F 87% 29.75 in 3.0 mi NW 8.1 mph - N/A Rain Light Rain
3:45 PM 50.0 °F - 46.4 °F 87% 29.74 in 3.0 mi NW 11.5 mph - N/A Rain Light Rain
4:45 PM 48.2 °F - 46.4 °F 93% 29.74 in 3.0 mi NNW 10.4 mph - N/A Rain Light Rain
5:05 PM 50.0 °F - 46.4 °F 87% 29.73 in 7.0 mi NNW 13.8 mph - N/A   Mostly Cloudy
5:50 PM 51.8 °F - 44.6 °F 76% 29.74 in 10.0 mi NNW 16.1 mph - N/A   Mostly Cloudy
6:29 PM 50.0 °F - 42.8 °F 76% 29.78 in 5.0 mi NNW 16.1 mph - N/A Rain Light Rain
6:45 PM 48.2 °F - 42.8 °F 82% 29.78 in 7.0 mi NW 13.8 mph - N/A   Mostly Cloudy
8:45 PM 42.8 °F 36.6 °F 37.4 °F 81% 29.86 in 10.0 mi NW 11.5 mph - N/A   Clear
9:45 PM 42.8 °F 36.6 °F 35.6 °F 76% 29.91 in 10.0 mi NNW 11.5 mph - N/A   Clear
10:55 PM 42.8 °F 36.2 °F 30.2 °F 61% 29.94 in 10.0 mi NW 12.7 mph 20.7 mph N/A   Mostly Cloudy
11:15 PM 42.8 °F 36.2 °F 28.4 °F 57% 29.95 in 10.0 mi NW 12.7 mph 19.6 mph N/A   Partly Cloudy
11:35 PM 42.8 °F 35.4 °F 30.2 °F 61% 29.96 in 10.0 mi NW 15.0 mph - N/A   Scattered Clouds
11:55 PM 41.0 °F 34.7 °F 28.4 °F 61% 29.98 in 10.0 mi NW 10.4 mph - N/A   Partly Cloudy